| time (UTC) | temp C | wind direction | speed KPH | gust KPH | rain 1hr cm | rain 24hr cm | rain mn cm | humidity % | barometer mb |
| 20260504110414 | 35 | 176 | 12.9 | 14.5 | 0.00 | 0.00 | 0.00 | 69 | 1004.0 |
| 20260504100414 | 35 | 165 | 4.8 | 14.5 | 0.00 | 0.00 | 0.00 | 65 | 1004.0 |
| 20260504081916 | 36 | 283 | 0.0 | 14.5 | 0.00 | 0.00 | 0.00 | 64 | 1005.0 |
| 20260504081413 | 35 | 293 | 11.3 | 14.5 | 0.00 | 0.00 | 0.00 | 65 | 1006.0 |
| 20260504080913 | 35 | 286 | 6.4 | 17.7 | 0.00 | 0.00 | 0.00 | 65 | 1006.0 |
| 20260504080414 | 35 | 281 | 0.0 | 17.7 | 0.00 | 0.00 | 0.00 | 65 | 1006.0 |
| 20260504050414 | 33 | 140 | 11.3 | 22.5 | 0.00 | 0.00 | 0.00 | 72 | 1009.0 |
| 20260504045913 | 33 | 179 | 11.3 | 20.9 | 0.00 | 0.00 | 0.00 | 73 | 1009.0 |
| 20260504045413 | 32 | 150 | 11.3 | 20.9 | 0.00 | 0.00 | 0.00 | 73 | 1009.0 |
| 20260504044914 | 32 | 146 | 11.3 | 17.7 | 0.00 | 0.00 | 0.00 | 73 | 1009.0 |
| 20260504044413 | 32 | 221 | 0.0 | 16.1 | 0.00 | 0.00 | 0.00 | 75 | 1009.0 |
| 20260504043913 | 31 | 138 | 9.7 | 22.5 | 0.00 | 0.00 | 0.00 | 74 | 1009.0 |
| 20260504043413 | 31 | 153 | 9.7 | 22.5 | 0.00 | 0.00 | 0.00 | 74 | 1009.0 |
| 20260504042913 | 31 | 226 | 4.8 | 17.7 | 0.00 | 0.00 | 0.00 | 74 | 1009.0 |
| 20260504042413 | 31 | 131 | 9.7 | 19.3 | 0.00 | 0.00 | 0.00 | 74 | 1009.0 |
| 20260504041913 | 31 | 143 | 4.8 | 25.7 | 0.00 | 0.00 | 0.00 | 75 | 1009.0 |
| 20260504041413 | 31 | 144 | 19.3 | 25.7 | 0.00 | 0.00 | 0.00 | 75 | 1009.0 |
| 20260504040913 | 31 | 144 | 14.5 | 25.7 | 0.00 | 0.00 | 0.00 | 76 | 1009.0 |
| 20260504040413 | 31 | 109 | 14.5 | 22.5 | 0.00 | 0.00 | 0.00 | 76 | 1009.0 |
| 20260504035913 | 31 | 116 | 19.3 | 22.5 | 0.00 | 0.00 | 0.00 | 76 | 1009.0 |
| 20260504035413 | 31 | 122 | 14.5 | 27.4 | 0.00 | 0.00 | 0.00 | 76 | 1009.0 |
| 20260504034913 | 31 | 115 | 20.9 | 27.4 | 0.00 | 0.00 | 0.00 | 75 | 1009.0 |
| 20260504034413 | 31 | 146 | 9.7 | 17.7 | 0.00 | 0.00 | 0.00 | 77 | 1009.0 |
| 20260504033913 | 31 | 129 | 8.0 | 14.5 | 0.00 | 0.00 | 0.00 | 77 | 1009.0 |
| 20260504033413 | 31 | 111 | 3.2 | 12.9 | 0.00 | 0.00 | 0.00 | 77 | 1009.0 |
| 20260504032913 | 31 | 117 | 1.6 | 3.2 | 0.00 | 0.00 | 0.00 | 76 | 1009.0 |
| 20260504032413 | 31 | 118 | 0.0 | 1.6 | 0.00 | 0.00 | 0.00 | 76 | 1009.0 |
| 20260504031913 | 31 | 121 | 0.0 | 1.6 | 0.00 | 0.00 | 0.00 | 76 | 1009.0 |
| 20260504031413 | 31 | 163 | 0.0 | 6.4 | 0.00 | 0.00 | 0.00 | 77 | 1009.0 |
| 20260504030915 | 31 | 114 | 0.0 | 9.7 | 0.00 | 0.00 | 0.00 | 77 | 1009.0 |
| 20260504030413 | 31 | 113 | 0.0 | 9.7 | 0.00 | 0.00 | 0.00 | 77 | 1009.0 |
| 20260504025913 | 30 | 154 | 0.0 | 6.4 | 0.00 | 0.00 | 0.00 | 78 | 1008.0 |
| 20260504025413 | 30 | 139 | 0.0 | 9.7 | 0.00 | 0.00 | 0.00 | 78 | 1008.0 |
| 20260504024913 | 30 | 163 | 0.0 | 14.5 | 0.00 | 0.00 | 0.00 | 78 | 1008.0 |
| 20260504024413 | 30 | 105 | 0.0 | 14.5 | 0.00 | 0.00 | 0.00 | 78 | 1008.0 |
| 20260504023913 | 30 | 103 | 6.4 | 14.5 | 0.00 | 0.00 | 0.00 | 79 | 1008.0 |
| 20260504023413 | 30 | 146 | 0.0 | 14.5 | 0.00 | 0.00 | 0.00 | 80 | 1008.0 |
| 20260504022913 | 30 | 103 | 0.0 | 12.9 | 0.00 | 0.00 | 0.00 | 80 | 1008.0 |
| 20260504022414 | 29 | 116 | 9.7 | 12.9 | 0.00 | 0.00 | 0.00 | 81 | 1008.0 |
| 20260504021913 | 29 | 129 | 0.0 | 9.7 | 0.00 | 0.00 | 0.00 | 81 | 1008.0 |
| 20260504021413 | 29 | 106 | 9.7 | 11.3 | 0.00 | 0.00 | 0.00 | 81 | 1008.0 |
| 20260504020913 | 29 | 124 | 0.0 | 14.5 | 0.00 | 0.00 | 0.00 | 81 | 1008.0 |
| 20260504020413 | 29 | 138 | 0.0 | 14.5 | 0.00 | 0.00 | 0.00 | 81 | 1008.0 |
| 20260504015914 | 28 | 107 | 8.0 | 16.1 | 0.00 | 0.00 | 0.00 | 81 | 1008.0 |
| 20260504015413 | 28 | 113 | 6.4 | 22.5 | 0.00 | 0.00 | 0.00 | 81 | 1008.0 |
| 20260504014913 | 28 | 130 | 1.6 | 22.5 | 0.00 | 0.00 | 0.00 | 82 | 1007.0 |
| 20260504014413 | 28 | 85 | 1.6 | 17.7 | 0.00 | 0.00 | 0.00 | 81 | 1007.0 |
| 20260504013913 | 28 | 119 | 8.0 | 16.1 | 0.00 | 0.00 | 0.00 | 80 | 1007.0 |
| 20260504013413 | 28 | 78 | 11.3 | 20.9 | 0.00 | 0.00 | 0.00 | 80 | 1007.0 |
| 20260504012913 | 28 | 89 | 14.5 | 20.9 | 0.00 | 0.00 | 0.00 | 80 | 1007.0 |
| 20260504012413 | 28 | 77 | 9.7 | 22.5 | 0.00 | 0.00 | 0.00 | 80 | 1007.0 |
| 20260504011913 | 28 | 72 | 8.0 | 22.5 | 0.00 | 0.00 | 0.00 | 81 | 1007.0 |
| 20260504011413 | 28 | 103 | 4.8 | 22.5 | 0.00 | 0.00 | 0.00 | 81 | 1007.0 |
| 20260504010914 | 28 | 115 | 14.5 | 24.1 | 0.00 | 0.00 | 0.00 | 81 | 1007.0 |
| 20260504010415 | 28 | 99 | 11.3 | 24.1 | 0.00 | 0.00 | 0.00 | 81 | 1007.0 |
| 20260504005913 | 28 | 87 | 17.7 | 19.3 | 0.00 | 0.00 | 0.00 | 81 | 1007.0 |
| 20260504005413 | 28 | 108 | 4.8 | 19.3 | 0.00 | 0.00 | 0.00 | 80 | 1007.0 |
| 20260504004914 | 28 | 99 | 8.0 | 19.3 | 0.00 | 0.00 | 0.00 | 80 | 1007.0 |
| 20260504004413 | 28 | 57 | 0.0 | 16.1 | 0.00 | 0.00 | 0.00 | 80 | 1007.0 |
| 20260504003913 | 28 | 89 | 4.8 | 9.7 | 0.00 | 0.00 | 0.00 | 80 | 1007.0 |
| 20260504003413 | 28 | 79 | 0.0 | 9.7 | 0.00 | 0.00 | 0.00 | 80 | 1007.0 |
| 20260504002913 | 28 | 91 | 0.0 | 11.3 | 0.00 | 0.00 | 0.00 | 80 | 1007.0 |
| 20260504002413 | 28 | 68 | 6.4 | 14.5 | 0.00 | 0.00 | 0.00 | 80 | 1007.0 |
| 20260504001913 | 28 | 75 | 4.8 | 17.7 | 0.00 | 0.00 | 0.00 | 80 | 1007.0 |
| 20260504001413 | 28 | 96 | 11.3 | 17.7 | 0.00 | 0.00 | 0.00 | 80 | 1007.0 |
| 20260504000913 | 28 | 107 | 4.8 | 19.3 | 0.00 | 0.00 | 0.00 | 80 | 1007.0 |
| 20260504000416 | 28 | 96 | 8.0 | 20.9 | 0.00 | 0.00 | 0.00 | 81 | 1007.0 |
| 20260503235914 | 28 | 107 | 11.3 | 20.9 | 0.00 | 0.00 | 0.00 | 81 | 1007.0 |
| 20260503235413 | 28 | 124 | 6.4 | 19.3 | 0.00 | 0.00 | 0.00 | 81 | 1007.0 |
| 20260503234914 | 28 | 83 | 8.0 | 19.3 | 0.00 | 0.00 | 0.00 | 82 | 1007.0 |
| 20260503234413 | 28 | 71 | 0.0 | 16.1 | 0.00 | 0.00 | 0.00 | 82 | 1007.0 |
| 20260503233913 | 28 | 79 | 0.0 | 16.1 | 0.00 | 0.00 | 0.00 | 83 | 1007.0 |
| 20260503233413 | 28 | 94 | 0.0 | 14.5 | 0.00 | 0.00 | 0.00 | 83 | 1007.0 |
| 20260503232914 | 28 | 79 | 8.0 | 12.9 | 0.00 | 0.00 | 0.00 | 82 | 1007.0 |
| 20260503232413 | 28 | 82 | 9.7 | 12.9 | 0.00 | 0.00 | 0.00 | 82 | 1007.0 |
| 20260503231913 | 28 | 91 | 4.8 | 14.5 | 0.00 | 0.00 | 0.00 | 82 | 1007.0 |
| 20260503231413 | 28 | 84 | 0.0 | 14.5 | 0.00 | 0.00 | 0.00 | 82 | 1007.0 |
| 20260503230913 | 28 | 86 | 0.0 | 24.1 | 0.00 | 0.00 | 0.00 | 83 | 1007.0 |
| 20260503230413 | 28 | 47 | 3.2 | 24.1 | 0.00 | 0.00 | 0.00 | 83 | 1007.0 |
| 20260503225914 | 29 | 99 | 3.2 | 24.1 | 0.00 | 0.00 | 0.00 | 81 | 1007.0 |
| 20260503225413 | 30 | 51 | 8.0 | 24.1 | 0.00 | 0.00 | 0.00 | 79 | 1007.0 |
| 20260503224913 | 30 | 70 | 0.0 | 16.1 | 0.00 | 0.00 | 0.00 | 75 | 1007.0 |
| 20260503224414 | 30 | 122 | 0.0 | 0.0 | 0.00 | 0.00 | 0.00 | 72 | 1006.0 |
| 20260503223913 | 30 | 122 | 0.0 | 0.0 | 0.00 | 0.00 | 0.00 | 72 | 1006.0 |
| 20260503223414 | 30 | 122 | 0.0 | 0.0 | 0.00 | 0.00 | 0.00 | 72 | 1006.0 |
| 20260503222914 | 30 | 122 | 0.0 | 0.0 | 0.00 | 0.00 | 0.00 | 73 | 1006.0 |
| 20260503222414 | 30 | 122 | 0.0 | 0.0 | 0.00 | 0.00 | 0.00 | 72 | 1006.0 |
| 20260503221914 | 30 | 122 | 0.0 | 0.0 | 0.00 | 0.00 | 0.00 | 72 | 1006.0 |
| 20260503221414 | 30 | 101 | 0.0 | 1.6 | 0.00 | 0.00 | 0.00 | 72 | 1006.0 |
| 20260503220914 | 30 | 102 | 0.0 | 1.6 | 0.00 | 0.00 | 0.00 | 72 | 1006.0 |
| 20260503220413 | 30 | 97 | 0.0 | 1.6 | 0.00 | 0.00 | 0.00 | 72 | 1006.0 |
| 20260503215913 | 30 | 265 | 0.0 | 0.0 | 0.00 | 0.00 | 0.00 | 73 | 1006.0 |
| 20260503215413 | 30 | 266 | 0.0 | 0.0 | 0.00 | 0.00 | 0.00 | 73 | 1006.0 |
| 20260503214913 | 30 | 266 | 0.0 | 0.0 | 0.00 | 0.00 | 0.00 | 73 | 1006.0 |
| 20260503214413 | 30 | 266 | 0.0 | 0.0 | 0.00 | 0.00 | 0.00 | 73 | 1006.0 |
| 20260503213913 | 30 | 156 | 0.0 | 0.0 | 0.00 | 0.00 | 0.00 | 73 | 1006.0 |
| 20260503213413 | 30 | 156 | 0.0 | 0.0 | 0.00 | 0.00 | 0.00 | 72 | 1006.0 |
| 20260503212913 | 30 | 153 | 0.0 | 0.0 | 0.00 | 0.00 | 0.00 | 72 | 1006.0 |
| 20260503212413 | 30 | 286 | 0.0 | 0.0 | 0.00 | 0.00 | 0.00 | 71 | 1006.0 |
| 20260503211914 | 30 | 286 | 0.0 | 0.0 | 0.00 | 0.00 | 0.00 | 71 | 1006.0 |
| 20260503211415 | 30 | 286 | 0.0 | 0.0 | 0.00 | 0.00 | 0.00 | 71 | 1006.0 |
| 20260503210913 | 30 | 286 | 0.0 | 0.0 | 0.00 | 0.00 | 0.00 | 72 | 1006.0 |
| 20260503210414 | 30 | 286 | 0.0 | 0.0 | 0.00 | 0.00 | 0.00 | 72 | 1006.0 |
| 20260503205913 | 30 | 286 | 0.0 | 0.0 | 0.00 | 0.00 | 0.00 | 72 | 1006.0 |
| 20260503205414 | 30 | 286 | 0.0 | 0.0 | 0.00 | 0.00 | 0.00 | 72 | 1006.0 |
| 20260503204913 | 30 | 286 | 0.0 | 1.6 | 0.00 | 0.00 | 0.00 | 72 | 1006.0 |
| 20260503204413 | 30 | 286 | 0.0 | 1.6 | 0.00 | 0.00 | 0.00 | 72 | 1006.0 |
| 20260503203913 | 30 | 271 | 0.0 | 1.6 | 0.00 | 0.00 | 0.00 | 71 | 1006.0 |
| 20260503203413 | 30 | 233 | 0.0 | 0.0 | 0.00 | 0.00 | 0.00 | 71 | 1006.0 |
| 20260503202913 | 30 | 244 | 0.0 | 0.0 | 0.00 | 0.00 | 0.00 | 71 | 1006.0 |
| 20260503202414 | 30 | 272 | 0.0 | 0.0 | 0.00 | 0.00 | 0.00 | 71 | 1006.0 |
| 20260503201913 | 31 | 272 | 0.0 | 0.0 | 0.00 | 0.00 | 0.00 | 71 | 1006.0 |
| 20260503201414 | 31 | 272 | 0.0 | 0.0 | 0.00 | 0.00 | 0.00 | 71 | 1006.0 |
| 20260503200913 | 30 | 279 | 0.0 | 0.0 | 0.00 | 0.00 | 0.00 | 71 | 1007.0 |
| 20260503200413 | 30 | 271 | 0.0 | 0.0 | 0.00 | 0.00 | 0.00 | 71 | 1007.0 |
| 20260503195913 | 31 | 249 | 0.0 | 0.0 | 0.00 | 0.00 | 0.00 | 71 | 1007.0 |
| 20260503195415 | 31 | 249 | 0.0 | 0.0 | 0.00 | 0.00 | 0.00 | 70 | 1007.0 |
| 20260503194913 | 31 | 276 | 0.0 | 0.0 | 0.00 | 0.00 | 0.00 | 71 | 1007.0 |
| 20260503194413 | 31 | 289 | 0.0 | 0.0 | 0.00 | 0.00 | 0.00 | 71 | 1007.0 |
| 20260503193913 | 31 | 33 | 0.0 | 0.0 | 0.00 | 0.00 | 0.00 | 71 | 1007.0 |
| 20260503193413 | 31 | 33 | 0.0 | 0.0 | 0.00 | 0.00 | 0.00 | 71 | 1007.0 |
| 20260503192914 | 31 | 33 | 0.0 | 0.0 | 0.00 | 0.00 | 0.00 | 71 | 1007.0 |
| 20260503192414 | 31 | 304 | 0.0 | 0.0 | 0.00 | 0.00 | 0.00 | 71 | 1007.0 |
| 20260503191914 | 31 | 304 | 0.0 | 1.6 | 0.00 | 0.00 | 0.00 | 71 | 1007.0 |
| 20260503191413 | 31 | 304 | 0.0 | 4.8 | 0.00 | 0.00 | 0.00 | 70 | 1007.0 |
| 20260503190913 | 31 | 308 | 1.6 | 4.8 | 0.00 | 0.00 | 0.00 | 71 | 1007.0 |
| 20260503190413 | 31 | 330 | 0.0 | 9.7 | 0.00 | 0.00 | 0.00 | 71 | 1007.0 |
| 20260503185913 | 31 | 308 | 0.0 | 11.3 | 0.00 | 0.00 | 0.00 | 71 | 1007.0 |
| 20260503185413 | 31 | 348 | 0.0 | 11.3 | 0.00 | 0.00 | 0.00 | 72 | 1008.0 |
| 20260503184914 | 31 | 311 | 3.2 | 11.3 | 0.00 | 0.00 | 0.00 | 72 | 1008.0 |
| 20260503184413 | 31 | 276 | 6.4 | 11.3 | 0.00 | 0.00 | 0.00 | 71 | 1008.0 |
| 20260503183913 | 31 | 323 | 0.0 | 11.3 | 0.00 | 0.00 | 0.00 | 71 | 1008.0 |
| 20260503183413 | 31 | 335 | 4.8 | 11.3 | 0.00 | 0.00 | 0.00 | 71 | 1008.0 |
| 20260503182914 | 31 | 313 | 4.8 | 8.0 | 0.00 | 0.00 | 0.00 | 70 | 1008.0 |
| 20260503182413 | 31 | 266 | 0.0 | 4.8 | 0.00 | 0.00 | 0.00 | 70 | 1007.0 |
| 20260503181914 | 31 | 349 | 0.0 | 3.2 | 0.00 | 0.00 | 0.00 | 70 | 1008.0 |
| 20260503181414 | 31 | 309 | 0.0 | 0.0 | 0.00 | 0.00 | 0.00 | 70 | 1007.0 |
| 20260503180913 | 31 | 126 | 0.0 | 0.0 | 0.00 | 0.00 | 0.00 | 70 | 1007.0 |
| 20260503180413 | 31 | 356 | 0.0 | 1.6 | 0.00 | 0.00 | 0.00 | 70 | 1007.0 |
| 20260503175913 | 31 | 11 | 0.0 | 4.8 | 0.00 | 0.00 | 0.00 | 70 | 1007.0 |
| 20260503175414 | 31 | 319 | 0.0 | 4.8 | 0.00 | 0.00 | 0.00 | 70 | 1008.0 |
| 20260503174913 | 31 | 330 | 0.0 | 4.8 | 0.00 | 0.00 | 0.00 | 70 | 1008.0 |
| 20260503174413 | 31 | 297 | 0.0 | 12.9 | 0.00 | 0.00 | 0.00 | 70 | 1008.0 |
| 20260503173913 | 31 | 307 | 0.0 | 14.5 | 0.00 | 0.00 | 0.00 | 70 | 1008.0 |
| 20260503173413 | 31 | 311 | 11.3 | 14.5 | 0.00 | 0.00 | 0.00 | 70 | 1008.0 |
| 20260503172914 | 31 | 307 | 6.4 | 9.7 | 0.00 | 0.00 | 0.00 | 71 | 1008.0 |
| 20260503172413 | 31 | 281 | 3.2 | 6.4 | 0.00 | 0.00 | 0.00 | 70 | 1007.0 |
| 20260503171914 | 31 | 236 | 0.0 | 6.4 | 0.00 | 0.00 | 0.00 | 70 | 1007.0 |
| 20260503171413 | 31 | 211 | 0.0 | 6.4 | 0.00 | 0.00 | 0.00 | 70 | 1007.0 |
| 20260503170913 | 31 | 181 | 1.6 | 3.2 | 0.00 | 0.00 | 0.00 | 70 | 1007.0 |
| 20260503170413 | 31 | 243 | 0.0 | 1.6 | 0.00 | 0.00 | 0.00 | 70 | 1007.0 |
| 20260503150913 | 32 | 141 | 4.8 | 12.9 | 0.00 | 0.00 | 0.00 | 66 | 1005.0 |
| 20260503150413 | 32 | 91 | 3.2 | 14.5 | 0.00 | 0.00 | 0.00 | 66 | 1005.0 |
| 20260503131413 | 33 | 146 | 6.4 | 16.1 | 0.00 | 0.00 | 0.00 | 70 | 1004.0 |
| 20260503130914 | 33 | 82 | 9.7 | 16.1 | 0.00 | 0.00 | 0.00 | 70 | 1004.0 |
| 20260503130414 | 33 | 159 | 11.3 | 12.9 | 0.00 | 0.00 | 0.00 | 68 | 1004.0 |